EWG81RA EDDL-EGKK

Flight info

Callsign EWG81RA
Flight time 1h 2m
Altitude 32000
Route MODRU2T MODRU Z717 MAS UM617 SOGRI DCT DENUT L610 TEBRA
Aircraft A319/M-SDE3FGHIRWY/LB1

Departure

Time 2026-05-04 13:02
Airport Düsseldorf Airport (EDDL)

Arrival

Time 2026-05-04 14:04
Airport London Gatwick Airport (EGKK)
Time Latitude Longitude Altitude Speed Heading
2026-05-04 12:39 51.28150 6.76541 125 ft 0 kts 97°
2026-05-04 12:52 51.28151 6.76535 125 ft 2 kts 96°
2026-05-04 12:52 51.28153 6.76509 124 ft 2 kts 95°
2026-05-04 12:52 51.28154 6.76483 127 ft 2 kts 97°
2026-05-04 12:52 51.28153 6.76457 123 ft 2 kts 59°
2026-05-04 12:53 51.28143 6.76436 128 ft 2 kts 37°
2026-05-04 12:53 51.28129 6.76422 125 ft 2 kts 13°
2026-05-04 12:53 51.28113 6.76418 124 ft 2 kts 357°
2026-05-04 12:53 51.28098 6.76421 125 ft 1 kts 347°
2026-05-04 12:54 51.28096 6.76422 125 ft 0 kts 347°
2026-05-04 12:56 51.28115 6.76418 124 ft 4 kts
2026-05-04 12:56 51.28150 6.76422 126 ft 5 kts
2026-05-04 12:56 51.28192 6.76431 127 ft 8 kts
2026-05-04 12:56 51.28252 6.76470 124 ft 11 kts 46°
2026-05-04 12:57 51.28327 6.76486 126 ft 13 kts 360°
2026-05-04 12:57 51.28398 6.76582 124 ft 15 kts 51°
2026-05-04 12:57 51.28463 6.76721 124 ft 16 kts 52°
2026-05-04 12:57 51.28534 6.76870 128 ft 17 kts 53°
2026-05-04 12:58 51.28609 6.77026 129 ft 18 kts 53°
2026-05-04 12:58 51.28689 6.77195 128 ft 20 kts 53°
2026-05-04 12:58 51.28778 6.77381 128 ft 22 kts 52°
2026-05-04 12:58 51.28875 6.77583 125 ft 24 kts 52°
2026-05-04 12:59 51.28978 6.77803 126 ft 25 kts 53°
2026-05-04 12:59 51.29089 6.78034 131 ft 27 kts 53°
2026-05-04 12:59 51.29197 6.78260 138 ft 25 kts 53°
2026-05-04 12:59 51.29293 6.78464 147 ft 21 kts 53°
2026-05-04 13:00 51.29357 6.78566 152 ft 11 kts 26°
2026-05-04 13:00 51.29431 6.78573 153 ft 12 kts 354°
2026-05-04 13:00 51.29506 6.78546 152 ft 12 kts 322°
2026-05-04 13:00 51.29503 6.78437 149 ft 7 kts 238°
2026-05-04 13:01 51.29492 6.78411 149 ft 2 kts 233°
2026-05-04 13:01 51.29465 6.78355 147 ft 17 kts 233°
2026-05-04 13:01 51.29264 6.77931 136 ft 79 kts 232°
2026-05-04 13:01 51.28812 6.76986 128 ft 134 kts 233°
2026-05-04 13:02 51.28185 6.75645 432 ft 154 kts 235°
2026-05-04 13:02 51.27546 6.74270 1087 ft 155 kts 233°
2026-05-04 13:02 51.26891 6.72852 1569 ft 166 kts 233°
2026-05-04 13:02 51.26177 6.71303 1998 ft 180 kts 233°
2026-05-04 13:03 51.25394 6.69602 2417 ft 199 kts 232°
2026-05-04 13:03 51.24558 6.67791 3025 ft 206 kts 232°
2026-05-04 13:03 51.23712 6.65892 3616 ft 215 kts 239°
2026-05-04 13:03 51.23416 6.63489 4180 ft 232 kts 277°
2026-05-04 13:04 51.24107 6.61111 4882 ft 250 kts 310°
2026-05-04 13:04 51.25513 6.59333 5587 ft 267 kts 323°
2026-05-04 13:04 51.27087 6.57633 6408 ft 277 kts 324°
2026-05-04 13:04 51.28691 6.55884 7312 ft 281 kts 323°
2026-05-04 13:05 51.30274 6.54074 8218 ft 285 kts 322°
2026-05-04 13:05 51.31704 6.51901 9116 ft 286 kts 304°
2026-05-04 13:05 51.32517 6.49018 9995 ft 287 kts 280°
2026-05-04 13:05 51.32536 6.45843 10758 ft 290 kts 258°
2026-05-04 13:06 51.31720 6.42797 11048 ft 312 kts 232°
2026-05-04 13:06 51.30051 6.40458 11447 ft 327 kts 214°
2026-05-04 13:06 51.28156 6.38396 12135 ft 332 kts 214°
2026-05-04 13:06 51.26241 6.36285 12879 ft 337 kts 215°
2026-05-04 13:07 51.24307 6.34133 13606 ft 341 kts 215°
2026-05-04 13:07 51.22354 6.31946 14285 ft 344 kts 215°
2026-05-04 13:07 51.20386 6.29741 14952 ft 347 kts 215°
2026-05-04 13:07 51.18405 6.27522 15630 ft 349 kts 215°
2026-05-04 13:08 51.16410 6.25292 16315 ft 351 kts 214°
2026-05-04 13:08 51.14401 6.23050 17024 ft 353 kts 214°
2026-05-04 13:08 51.12411 6.20833 17719 ft 355 kts 214°
2026-05-04 13:08 51.10382 6.18575 18407 ft 357 kts 214°
2026-05-04 13:09 51.08338 6.16307 19007 ft 359 kts 214°
2026-05-04 13:09 51.06278 6.14028 19577 ft 363 kts 214°
2026-05-04 13:09 51.04202 6.11724 20152 ft 365 kts 214°
2026-05-04 13:09 51.02269 6.09092 20759 ft 369 kts 225°
2026-05-04 13:10 51.00674 6.05878 21360 ft 372 kts 235°
2026-05-04 13:10 50.99388 6.02286 21956 ft 375 kts 238°
2026-05-04 13:10 50.98119 5.98672 22533 ft 376 kts 238°
2026-05-04 13:10 50.97016 5.94894 23078 ft 381 kts 248°
2026-05-04 13:11 50.96273 5.90839 23609 ft 384 kts 251°
2026-05-04 13:11 50.95559 5.86750 24055 ft 385 kts 251°
2026-05-04 13:11 50.94835 5.82650 24502 ft 387 kts 251°
2026-05-04 13:11 50.94100 5.78534 24933 ft 389 kts 251°
2026-05-04 13:12 50.93362 5.74401 25356 ft 390 kts 250°
2026-05-04 13:12 50.92619 5.70254 25772 ft 392 kts 250°
2026-05-04 13:12 50.91871 5.66086 26184 ft 394 kts 250°
2026-05-04 13:12 50.91118 5.61902 26553 ft 397 kts 251°
2026-05-04 13:13 50.90357 5.57676 26906 ft 401 kts 251°
2026-05-04 13:13 50.89586 5.53406 27321 ft 404 kts 251°
2026-05-04 13:13 50.88809 5.49115 27742 ft 406 kts 250°
2026-05-04 13:13 50.88027 5.44805 28160 ft 408 kts 250°
2026-05-04 13:14 50.87250 5.40538 28568 ft 410 kts 250°
2026-05-04 13:14 50.86458 5.36192 28968 ft 412 kts 250°
2026-05-04 13:14 50.85661 5.31823 29369 ft 414 kts 250°
2026-05-04 13:14 50.84860 5.27440 29774 ft 416 kts 250°
2026-05-04 13:15 50.84051 5.23032 30140 ft 418 kts 250°
2026-05-04 13:15 50.83235 5.18619 30478 ft 419 kts 250°
2026-05-04 13:15 50.82416 5.14183 30822 ft 421 kts 250°
2026-05-04 13:15 50.81849 5.09611 31110 ft 428 kts 260°
2026-05-04 13:16 50.81833 5.04859 31425 ft 437 kts 270°
2026-05-04 13:16 50.82388 5.00117 31819 ft 443 kts 281°
2026-05-04 13:16 50.83489 4.95538 31963 ft 446 kts 290°
2026-05-04 13:16 50.84858 4.91224 31990 ft 432 kts 291°
2026-05-04 13:17 50.86203 4.87023 31988 ft 425 kts 291°
2026-05-04 13:17 50.88403 4.80092 31991 ft 422 kts 290°
2026-05-04 13:18 50.91020 4.71771 31991 ft 422 kts 290°
2026-05-04 13:18 50.94045 4.62082 32002 ft 423 kts 290°
2026-05-04 13:19 50.96230 4.55084 32004 ft 423 kts 290°
2026-05-04 13:19 50.98840 4.46721 32000 ft 422 kts 290°
2026-05-04 13:20 51.01426 4.38408 31994 ft 422 kts 290°
2026-05-04 13:20 51.04015 4.30040 31989 ft 422 kts 290°
2026-05-04 13:21 51.06603 4.21646 31988 ft 422 kts 290°
2026-05-04 13:21 51.09179 4.13250 31984 ft 422 kts 290°
2026-05-04 13:22 51.11755 4.04870 31983 ft 422 kts 290°
2026-05-04 13:22 51.14330 3.96462 31979 ft 422 kts 290°
2026-05-04 13:23 51.16887 3.88049 31972 ft 422 kts 290°
2026-05-04 13:23 51.19432 3.79624 31994 ft 422 kts 290°
2026-05-04 13:24 51.21981 3.71187 31973 ft 423 kts 290°
2026-05-04 13:24 51.24053 3.62516 31966 ft 414 kts 276°
2026-05-04 13:25 51.25825 3.49079 31974 ft 414 kts 276°
2026-05-04 13:25 51.27016 3.40081 31983 ft 415 kts 276°
2026-05-04 13:26 51.28198 3.31062 32014 ft 415 kts 276°
2026-05-04 13:26 51.29357 3.22028 32018 ft 415 kts 276°
2026-05-04 13:27 51.30499 3.12996 31741 ft 414 kts 276°
2026-05-04 13:27 51.31068 3.08467 31487 ft 414 kts 276°
2026-05-04 13:27 51.31636 3.03949 31232 ft 415 kts 276°
2026-05-04 13:28 51.32204 2.99423 30981 ft 416 kts 276°
2026-05-04 13:28 51.32774 2.94891 30731 ft 416 kts 276°
2026-05-04 13:28 51.33338 2.90415 30475 ft 415 kts 276°
2026-05-04 13:28 51.33899 2.85961 30248 ft 414 kts 276°
2026-05-04 13:29 51.34429 2.81708 30000 ft 412 kts 277°
2026-05-04 13:29 51.34965 2.77394 29536 ft 407 kts 277°
2026-05-04 13:29 51.35492 2.73161 29067 ft 403 kts 277°
2026-05-04 13:29 51.36035 2.68780 28574 ft 399 kts 277°
2026-05-04 13:30 51.36570 2.64447 28107 ft 395 kts 277°
2026-05-04 13:30 51.37091 2.60208 27657 ft 391 kts 277°
2026-05-04 13:30 51.37610 2.55961 27202 ft 387 kts 277°
2026-05-04 13:30 51.38125 2.51749 26758 ft 384 kts 277°
2026-05-04 13:31 51.38636 2.47574 26329 ft 380 kts 277°
2026-05-04 13:31 51.39139 2.43426 25900 ft 378 kts 277°
2026-05-04 13:31 51.39636 2.39321 25500 ft 375 kts 278°
2026-05-04 13:31 51.40125 2.35233 25105 ft 372 kts 278°
2026-05-04 13:32 51.40611 2.31178 24698 ft 369 kts 278°
2026-05-04 13:32 51.41094 2.27156 24302 ft 366 kts 278°
2026-05-04 13:32 51.41572 2.23155 23912 ft 364 kts 278°
2026-05-04 13:32 51.42052 2.19193 23493 ft 361 kts 278°
2026-05-04 13:33 51.42535 2.15262 23063 ft 357 kts 278°
2026-05-04 13:33 51.43005 2.11436 22672 ft 352 kts 278°
2026-05-04 13:33 51.43470 2.07612 22268 ft 348 kts 278°
2026-05-04 13:33 51.43927 2.03832 21873 ft 344 kts 278°
2026-05-04 13:34 51.44381 2.00085 21451 ft 341 kts 279°
2026-05-04 13:34 51.44826 1.96373 21046 ft 338 kts 278°
2026-05-04 13:34 51.45262 1.92690 20633 ft 335 kts 278°
2026-05-04 13:34 51.45693 1.89025 20219 ft 334 kts 278°
2026-05-04 13:35 51.46119 1.85376 19800 ft 332 kts 278°
2026-05-04 13:35 51.46959 1.78105 18956 ft 330 kts 278°
2026-05-04 13:35 51.47372 1.74483 18539 ft 329 kts 278°
2026-05-04 13:36 51.47789 1.70870 18099 ft 329 kts 278°
2026-05-04 13:36 51.48206 1.67273 17666 ft 327 kts 279°
2026-05-04 13:36 51.48514 1.63675 17241 ft 323 kts 270°
2026-05-04 13:36 51.48398 1.60099 16827 ft 320 kts 260°
2026-05-04 13:37 51.47877 1.56702 16413 ft 317 kts 249°
2026-05-04 13:37 51.47099 1.53362 16002 ft 315 kts 248°
2026-05-04 13:37 51.46345 1.50129 15598 ft 313 kts 248°
2026-05-04 13:37 51.45831 1.47912 15310 ft 312 kts 249°
2026-05-04 13:38 51.44836 1.43598 14781 ft 311 kts 249°
2026-05-04 13:38 51.44033 1.40381 14369 ft 310 kts 243°
2026-05-04 13:38 51.42880 1.37487 13966 ft 308 kts 230°
2026-05-04 13:38 51.41351 1.35036 13752 ft 317 kts 219°
2026-05-04 13:39 51.39575 1.32907 13526 ft 320 kts 217°
2026-05-04 13:39 51.37779 1.30780 13298 ft 321 kts 217°
2026-05-04 13:39 51.35985 1.28657 13076 ft 320 kts 217°
2026-05-04 13:39 51.34200 1.26546 12850 ft 319 kts 217°
2026-05-04 13:40 51.32544 1.24232 12634 ft 316 kts 231°
2026-05-04 13:40 51.31530 1.21125 12426 ft 317 kts 250°
2026-05-04 13:40 51.30831 1.17776 12221 ft 318 kts 251°
2026-05-04 13:40 51.30157 1.14412 11980 ft 317 kts 252°
2026-05-04 13:41 51.29489 1.11071 11726 ft 315 kts 251°
2026-05-04 13:41 51.28825 1.07745 11476 ft 314 kts 252°
2026-05-04 13:41 51.28156 1.04432 11227 ft 313 kts 251°
2026-05-04 13:42 51.26816 0.97843 10736 ft 310 kts 251°
2026-05-04 13:42 51.26149 0.94585 10489 ft 304 kts 251°
2026-05-04 13:42 51.25510 0.91416 10249 ft 297 kts 251°
2026-05-04 13:42 51.24895 0.88349 10052 ft 289 kts 251°
2026-05-04 13:43 51.24281 0.85291 10008 ft 284 kts 251°
2026-05-04 13:43 51.23676 0.82293 10007 ft 284 kts 251°
2026-05-04 13:43 51.23072 0.79294 10007 ft 284 kts 251°
2026-05-04 13:43 51.22478 0.76340 10009 ft 283 kts 251°
2026-05-04 13:44 51.21878 0.73346 9999 ft 283 kts 251°
2026-05-04 13:44 51.21275 0.70355 10004 ft 283 kts 251°
2026-05-04 13:44 51.20668 0.67365 9932 ft 285 kts 251°
2026-05-04 13:44 51.20061 0.64393 9719 ft 279 kts 251°
2026-05-04 13:45 51.19469 0.61479 9506 ft 273 kts 251°
2026-05-04 13:45 51.18889 0.58625 9295 ft 269 kts 251°
2026-05-04 13:45 51.18311 0.55792 9089 ft 268 kts 251°
2026-05-04 13:45 51.17732 0.52966 8878 ft 268 kts 251°
2026-05-04 13:46 51.17151 0.50148 8663 ft 267 kts 251°
2026-05-04 13:46 51.16560 0.47341 8462 ft 267 kts 249°
2026-05-04 13:46 51.15547 0.44898 8256 ft 265 kts 221°
2026-05-04 13:46 51.13938 0.43538 8083 ft 264 kts 196°
2026-05-04 13:47 51.12149 0.42889 7991 ft 263 kts 192°
2026-05-04 13:47 51.10344 0.42320 7998 ft 265 kts 191°
2026-05-04 13:47 51.08535 0.41756 8000 ft 265 kts 191°
2026-05-04 13:47 51.06747 0.41203 8010 ft 266 kts 191°
2026-05-04 13:48 51.04930 0.40642 8001 ft 266 kts 191°
2026-05-04 13:48 51.03115 0.40087 8001 ft 265 kts 191°
2026-05-04 13:48 51.01366 0.39261 7998 ft 257 kts 210°
2026-05-04 13:48 50.99970 0.37615 8007 ft 245 kts 220°
2026-05-04 13:49 50.98686 0.35866 8005 ft 242 kts 221°
2026-05-04 13:49 50.97413 0.34106 8002 ft 242 kts 221°
2026-05-04 13:49 50.96142 0.32341 8010 ft 243 kts 221°
2026-05-04 13:49 50.94879 0.30583 8009 ft 236 kts 221°
2026-05-04 13:50 50.93653 0.28881 8009 ft 232 kts 221°
2026-05-04 13:50 50.92540 0.27052 8007 ft 231 kts 236°
2026-05-04 13:50 50.91718 0.24861 8008 ft 231 kts 241°
2026-05-04 13:50 50.90946 0.22626 8011 ft 232 kts 241°
2026-05-04 13:51 50.90187 0.20407 8012 ft 231 kts 241°
2026-05-04 13:51 50.89433 0.18152 8005 ft 232 kts 246°
2026-05-04 13:51 50.89166 0.15646 7839 ft 232 kts 275°
2026-05-04 13:51 50.89418 0.13162 7643 ft 225 kts 281°
2026-05-04 13:52 50.90048 0.08396 7241 ft 220 kts 281°
2026-05-04 13:52 50.90358 0.06026 7054 ft 220 kts 281°
2026-05-04 13:52 50.90665 0.03666 6857 ft 218 kts 281°
2026-05-04 13:53 50.90969 0.01311 6662 ft 218 kts 281°
2026-05-04 13:53 50.91271 -0.01034 6485 ft 216 kts 281°
2026-05-04 13:53 50.91579 -0.03373 6291 ft 217 kts 281°
2026-05-04 13:54 50.92207 -0.08019 5874 ft 216 kts 281°
2026-05-04 13:54 50.92517 -0.10353 5667 ft 216 kts 281°
2026-05-04 13:54 50.93124 -0.15016 5257 ft 215 kts 281°
2026-05-04 13:55 50.93556 -0.17269 5051 ft 210 kts 290°
2026-05-04 13:55 50.94564 -0.21432 4676 ft 194 kts 291°
2026-05-04 13:55 50.95047 -0.23414 4451 ft 192 kts 291°
2026-05-04 13:56 50.95525 -0.25388 4258 ft 191 kts 291°
2026-05-04 13:56 50.96000 -0.27358 4053 ft 191 kts 291°
2026-05-04 13:56 50.96939 -0.31292 3643 ft 190 kts 291°
2026-05-04 13:57 50.97405 -0.33255 3447 ft 190 kts 291°
2026-05-04 13:57 50.97868 -0.35217 3246 ft 190 kts 291°
2026-05-04 13:58 50.99297 -0.41042 2993 ft 189 kts 301°
2026-05-04 13:58 51.01543 -0.42950 3007 ft 187 kts 345°
2026-05-04 13:58 51.02786 -0.43479 3000 ft 187 kts 346°
2026-05-04 13:59 51.04047 -0.44003 3006 ft 187 kts 346°
2026-05-04 13:59 51.05313 -0.44524 2832 ft 187 kts 346°
2026-05-04 13:59 51.07809 -0.44573 2418 ft 184 kts 31°
2026-05-04 14:00 51.08833 -0.43347 2221 ft 184 kts 40°
2026-05-04 14:00 51.10678 -0.40845 2000 ft 166 kts 41°
2026-05-04 14:00 51.11543 -0.39655 2003 ft 163 kts 43°
2026-05-04 14:01 51.12145 -0.38150 2005 ft 163 kts 72°
2026-05-04 14:01 51.12400 -0.36392 2014 ft 163 kts 77°
2026-05-04 14:01 51.12868 -0.33043 1793 ft 140 kts 78°
2026-05-04 14:02 51.13074 -0.31565 1623 ft 134 kts 77°
2026-05-04 14:02 51.13267 -0.30150 1455 ft 132 kts 78°
2026-05-04 14:02 51.13463 -0.28730 1263 ft 131 kts 77°
2026-05-04 14:02 51.13658 -0.27326 1112 ft 129 kts 77°
2026-05-04 14:03 51.13850 -0.25931 986 ft 128 kts 77°
2026-05-04 14:03 51.14050 -0.24554 760 ft 127 kts 77°
2026-05-04 14:03 51.14243 -0.23188 557 ft 127 kts 78°
2026-05-04 14:03 51.14427 -0.21823 381 ft 125 kts 77°
2026-05-04 14:04 51.14784 -0.19267 205 ft 92 kts 78°
2026-05-04 14:04 51.14888 -0.18494 210 ft 58 kts 77°
2026-05-04 14:04 51.14960 -0.17977 209 ft 45 kts 77°
2026-05-04 14:05 51.15105 -0.17241 207 ft 11 kts 52°
2026-05-04 14:05 51.15141 -0.17208 206 ft 1 kts
2026-05-04 14:05 51.15153 -0.17212 204 ft 3 kts 343°
2026-05-04 14:06 51.15170 -0.17228 206 ft 0 kts 327°
2026-05-04 14:07 51.15178 -0.17237 211 ft 3 kts 327°
2026-05-04 14:08 51.15195 -0.17256 207 ft 7 kts 324°
2026-05-04 14:08 51.15257 -0.17323 204 ft 15 kts 328°
2026-05-04 14:08 51.15366 -0.17374 204 ft 18 kts 348°
2026-05-04 14:08 51.15480 -0.17414 204 ft 14 kts 347°
2026-05-04 14:09 51.15602 -0.17313 204 ft 14 kts 76°
2026-05-04 14:09 51.15627 -0.17156 206 ft 8 kts 76°
2026-05-04 14:10 51.15649 -0.16995 214 ft 11 kts 78°
2026-05-04 14:10 51.15668 -0.16861 209 ft 12 kts 77°
2026-05-04 14:10 51.15689 -0.16804 212 ft 7 kts 16°
2026-05-04 14:10 51.15723 -0.16814 212 ft 5 kts 345°
2026-05-04 14:11 51.15741 -0.16821 207 ft 0 kts 346°